Ponca City, OK

12:46 AM CDT on October 23, 2019 (GMT -0500)
Ponca City Municipal

Weather History for KPNC - June, 2019

Change the Weather History Date:

Monday, June 10, 2019

  Actual Average Record
Temperature  
Mean Temperature 66 °F -  
Max Temperature 79 °F 88 °F 102 °F (2006)
Min Temperature 54 °F 64 °F 49 °F (1955)
Cooling Degree Days 2    
Growing Degree Days 16 (Base 50)    
Moisture  
Dew Point 48 °F    
Average Humidity 53    
Maximum Humidity 83    
Minimum Humidity 29    
Precipitation  
Precipitation 0.00 in - - ()
Sea Level Pressure  
Sea Level Pressure 30.31 in    
Wind  
Wind Speed 10 mph (NNE)    
Max Wind Speed 18 mph    
Max Gust Speed 22 mph    
Visibility 10 miles    
Events      
Averages and records for this station are not official NWS values.
T = Trace of Precipitation, MM = Missing Value Source: NWS Daily Summary

Daily Weather History Graph

Daily Weather History Graph

Search for Another Location

Airport or City:

Astronomy

Jun. 10, 2019 Rise Set
Actual Time 6:09 AM CDT 8:46 PM CDT
Civil Twilight 5:38 AM CDT 9:17 PM CDT
Nautical Twilight 5:00 AM CDT 9:55 PM CDT
Astronomical Twilight 4:18 AM CDT 10:37 PM CDT
Moon 1:51 PM CDT (6/10) 2:08 AM CDT (6/10)
Length of Visible Light 15h 38m
Length of Day
14h 37m
First Quarter, 55% of the Moon is Illuminated
Jun 10
First Quarter
Jun 17
Full
Jun 25
Last Quarter
Jul 2
New
Jul 9
First Quarter

Hourly Weather History & Observations

Time (CDT) Temp. Dew Point Humidity Pressure Visibility Wind Dir Wind Speed Gust Speed Precip Events Conditions
12:53 AM 63.0 °F 52.0 °F 67% 30.28 in 10.0 mi North 11.5 mph - N/A   Scattered Clouds
1:53 AM 63.0 °F 52.0 °F 67% 30.28 in 10.0 mi North 13.8 mph - N/A   Scattered Clouds
2:53 AM 60.1 °F 51.1 °F 72% 30.30 in 10.0 mi North 9.2 mph - N/A   Scattered Clouds
3:53 AM 59.0 °F 50.0 °F 72% 30.31 in 10.0 mi North 8.1 mph - N/A   Partly Cloudy
4:53 AM 55.9 °F 48.9 °F 77% 30.34 in 10.0 mi NNE 5.8 mph - N/A   Clear
5:53 AM 54.0 °F 48.9 °F 83% 30.36 in 10.0 mi North 6.9 mph - N/A   Clear
6:53 AM 57.0 °F 48.9 °F 74% 30.38 in 10.0 mi North 5.8 mph - N/A   Clear
7:53 AM 60.1 °F 50.0 °F 69% 30.38 in 10.0 mi North 12.7 mph - N/A   Clear
8:53 AM 66.0 °F 48.9 °F 54% 30.38 in 10.0 mi North 13.8 mph - N/A   Clear
9:53 AM 71.1 °F 46.9 °F 42% 30.39 in 10.0 mi NNE 15.0 mph 21.9 mph N/A   Clear
10:53 AM 73.9 °F 45.0 °F 35% 30.37 in 10.0 mi NNE 16.1 mph 21.9 mph N/A   Clear
11:53 AM 73.9 °F 44.1 °F 34% 30.36 in 10.0 mi North 18.4 mph - N/A   Clear
12:53 PM 75.9 °F 44.1 °F 32% 30.35 in 10.0 mi NNE 9.2 mph 20.7 mph N/A   Clear
1:53 PM 77.0 °F 43.0 °F 30% 30.33 in 10.0 mi NE 9.2 mph - N/A   Clear
2:53 PM 78.1 °F 43.0 °F 29% 30.31 in 10.0 mi North 10.4 mph 20.7 mph N/A   Clear
3:53 PM 79.0 °F 44.1 °F 29% 30.30 in 10.0 mi ENE 10.4 mph 17.3 mph N/A   Clear
4:53 PM 79.0 °F 46.9 °F 32% 30.27 in 10.0 mi ENE 12.7 mph - N/A   Clear
5:53 PM 79.0 °F 45.0 °F 30% 30.25 in 10.0 mi NNE 5.8 mph - N/A   Clear
6:53 PM 77.0 °F 42.1 °F 29% 30.24 in 10.0 mi Calm Calm - N/A   Clear
7:53 PM 73.9 °F 46.0 °F 37% 30.22 in 10.0 mi East 4.6 mph - N/A   Clear
8:53 PM 69.1 °F 51.1 °F 53% 30.23 in 10.0 mi Calm Calm - N/A   Clear
9:53 PM 64.9 °F 52.0 °F 63% 30.23 in 10.0 mi East 3.5 mph - N/A   Clear
10:53 PM 63.0 °F 54.0 °F 72% 30.25 in 10.0 mi Calm Calm - N/A   Clear
11:53 PM 61.0 °F 54.0 °F 78% 30.23 in 10.0 mi Calm Calm - N/A   Clear